Cloud_Cover
52 83 5 5 69 5 5 14 3 100 0 0 0 0 0 0 0 14 48 63 98 38 83 33 20 8 0 0 0 0 0 0 0 0 0 0 0 0 0 0 0 0 0 5
5 10 5 5 37 6 5 75 7 100 17 5 0 0 0 0 5 0 5 0 39 26 5 4 0 0 2 1 1 0 0 0 0 0 0 0 0 0 0 0 0 0 0 5
0 0 0 0 36 47 73 18 27 36 90 5 0 0 0 0 1 0 5 0 4 0 0 1 2 0 0 5 0 0 0 0 0 0 0 0 0 0 3 0 12 1 0 3
0 0 4 5 1 2 4 5 5 14 77 29 0 0 5 0 1 5 0 0 0 0 0 1 1 4 2 5 4 1 0 0 0 0 0 0 0 0 34 36 29 2 8 0
4 5 2 0 5 1 0 0 2 5 93 24 5 4 3 5 0 0 0 0 0 0 0 1 20 8 5 11 0 1 0 0 0 4 1 0 0 0 26 47 47 20 5 4
100 100 67 0 0 4 0 0 0 4 80 100 60 50 5 5 5 1 0 0 0 0 1 0 1 18 48 15 4 0 0 2 0 0 3 5 0 0 1 18 44 51 38 67
100 100 59 0 0 5 2 2 0 4 19 100 67 96 69 38 5 13 2 0 0 0 0 0 0 0 0 0 1 5 5 3 0 0 0 2 2 7 45 55 38 69 81 100
100 100 98 10 2 5 7 0 0 0 0 16 7 32 27 68 41 48 9 1 0 0 0 0 0 0 0 0 0 30 5 4 0 0 0 25 88 80 62 55 68 100 100 100
100 100 93 16 5 4 95 5 0 0 0 4 5 5 5 71 56 32 5 0 0 0 0 0 0 5 5 5 80 73 74 97 2 5 1 47 83 81 100 80 87 100 100 100
100 100 100 98 0 1 11 0 0 0 0 0 0 0 5 10 32 19 4 3 0 0 32 2 0 0 0 91 99 59 11 8 98 72 100 92 76 79 84 100 100 100 100 100
100 100 100 98 87 100 94 5 42 89 5 3 0 5 12 8 5 8 0 0 19 77 10 68 83 100 100 100 100 100 100 100 100 100 100 100 100 100 100 100 100 100 100 100
100 100 100 100 100 100 100 100 16 7 96 79 71 38 27 17 7 0 0 0 26 99 100 100 100 100 100 100 100 100 100 100 100 100 100 100 100 100 100 100 100 100 100 100
100 100 100 100 100 100 88 99 90 100 100 100 100 100 5 5 0 0 0 4 68 100 100 100 100 100 100 100 100 100 100 100 100 100 100 100 100 100 100 100 100 100 100 94
100 100 100 100 67 100 100 100 100 100 100 100 100 100 66 2 1 0 4 100 100 100 100 100 100 100 100 100 100 100 100 100 100 100 92 100 100 94 100 100 100 100 85 46
100 100 100 100 89 100 100 100 100 100 100 100 100 100 40 0 0 2 98 100 100 100 100 100 100 100 100 100 100 100 100 100 93 81 7 6 0 63 100 100 88 20 31 100
100 98 78 93 100 100 100 100 100 100 100 100 61 25 4 0 0 25 100 100 100 100 100 100 100 100 100 100 100 100 100 100 78 35 44 46 44 6 24 27 91 100 100 100
100 100 100 100 100 100 100 100 100 100 100 100 35 6 0 0 0 66 100 100 100 100 100 100 100 100 100 100 100 100 100 100 86 89 34 28 24 78 100 100 100 100 100 100
100 100 100 100 100 100 100 100 100 100 100 71 65 36 5 9 21 100 100 100 100 100 100 100 100 100 100 100 100 100 100 100 53 100 100 100 67 96 100 100 100 100 100 100
100 100 100 100 100 100 100 100 100 100 100 100 100 73 60 75 46 100 100 100 100 100 100 100 100 100 100 100 100 100 100 100 100 100 100 100 100 100 98 100 100 100 100 100
100 100 100 100 100 100 100 100 96 100 100 100 40 78 100 56 52 74 99 100 100 100 100 100 100 100 100 96 93 100 100 100 100 100 60 73 96 100 100 100 100 100 100 100
100 100 100 100 100 100 100 100 100 100 100 95 98 98 7 5 6 79 79 86 88 100 100 100 100 100 100 100 100 99 94 100 98 99 100 100 100 100 100 100 100 100 100 100
100 100 100 100 100 100 100 100 100 96 88 89 70 90 21 9 5 5 26 100 99 100 100 100 100 100 93 100 100 100 100 90 53 41 100 100 100 100 100 100 100 100 96 100
100 100 100 100 100 100 100 100 99 100 100 100 100 26 94 92 14 66 16 3 9 26 67 100 100 100 100 100 100 100 100 91 76 92 100 100 100 100 100 100 96 100 100 100
100 100 100 100 100 100 100 100 100 100 100 100 100 100 57 100 92 67 29 31 10 5 5 24 99 94 92 100 100 100 100 100 100 100 100 100 100 100 100 100 100 100 100 100
100 100 100 100 100 100 100 100 100 100 100 100 100 100 100 89 75 63 48 5 5 5 5 5 2 20 97 99 99 100 58 43 55 89 100 100 100 20 61 100 100 100 100 100
100 100 100 100 100 100 100 100 100 100 100 100 100 100 85 61 89 84 100 100 30 5 5 43 16 25 90 100 100 100 96 100 100 100 100 100 100 100 100 100 89 69 16 78
100 100 100 100 100 100 100 100 100 100 100 100 100 100 100 98 44 40 62 98 100 99 74 60 28 85 100 97 100 100 100 100 95 96 100 100 100 100 100 100 90 100 100 80